This demonstration page uses our WeatherBlox Daily Observations layout. Learn more.

Hourly Observations for June 14, 2017

Temp ( °F °C ) Dew Point ( °F °C ) Humidity (%) Winds ( mph kmh ) Pressure ( in mb ) Visibility ( mi km ) Precip ( " mm )
12:15 am 00:15 Clear 81 27 70 21 70 70 NW 7 11 29.94 1014 10 16.09344 0 0
12:35 am 00:35 Clear 81 27 70 21 70 70 NW 8 13 29.94 1014 10 16.09344 0 0
12:55 am 00:55 Clear 81 27 70 21 70 70 WNW 5 7 29.94 1014 10 16.09344 0 0
1:15 am 01:15 Clear 79 26 70 21 74 74 Calm 29.94 1014 10 16.09344 0 0
1:35 am 01:35 Clear 81 27 68 20 66 66 Calm 29.94 1014 10 16.09344 0 0
1:55 am 01:55 Clear 79 26 68 20 70 70 NW 6 9 29.91 1013 10 16.09344 0 0
2:15 am 02:15 Mostly Cloudy 79 26 68 20 70 70 Calm 29.94 1014 10 16.09344 0 0
2:30 am 02:30 Partly Cloudy 79 26 68 20 70 70 NW 8 13 29.94 1014 10 16.09344 0 0
2:55 am 02:55 Cloudy 79 26 68 20 70 70 NW 7 11 29.94 1014 10 16.09344 0 0
3:15 am 03:15 Mostly Cloudy 79 26 68 20 70 70 WNW 3 6 29.94 1014 10 16.09344 0 0
3:35 am 03:35 Partly Cloudy 79 26 68 20 70 70 Calm 29.94 1014 10 16.09344 0 0
3:55 am 03:55 Clear 79 26 68 20 70 70 NNW 7 11 29.94 1014 10 16.09344 0 0
4:15 am 04:15 Clear 79 26 68 20 70 70 NNW 10 17 29.94 1014 10 16.09344 0 0
4:35 am 04:35 Clear 77 25 68 20 74 74 N 7 11 29.94 1014 10 16.09344 0 0
4:55 am 04:55 Clear 77 25 68 20 74 74 NNW 6 9 29.94 1014 10 16.09344 0 0
5:10 am 05:10 Clear 77 25 68 20 74 74 NNW 7 11 29.94 1014 10 16.09344 0 0
5:35 am 05:35 Clear 77 25 68 20 74 74 N 6 9 29.94 1014 10 16.09344 0 0
5:55 am 05:55 Sunny 77 25 68 20 74 74 N 6 9 29.94 1014 10 16.09344 0 0
6:15 am 06:15 Sunny 77 25 68 20 74 74 N 7 11 29.97 1015 10 16.09344 0 0
6:35 am 06:35 Sunny 77 25 68 20 74 74 N 3 6 29.97 1015 10 16.09344 0 0
6:55 am 06:55 Sunny 77 25 68 20 74 74 N 6 9 29.97 1015 10 16.09344 0 0
7:15 am 07:15 Sunny 77 25 70 21 79 79 NW 5 7 29.97 1015 10 16.09344 0 0
7:35 am 07:35 Sunny 79 26 70 21 74 74 NNW 7 11 29.97 1015 10 16.09344 0 0
7:55 am 07:55 Sunny 79 26 70 21 74 74 NNW 13 20 30 1016 10 16.09344 0 0
8:15 am 08:15 Sunny 79 26 70 21 74 74 N 10 17 30 1016 10 16.09344 0 0
8:35 am 08:35 Sunny 81 27 70 21 70 70 NNW 13 20 30 1016 10 16.09344 0 0
8:55 am 08:55 Sunny 81 27 70 21 70 70 N 12 19 30 1016 10 16.09344 0 0
9:15 am 09:15 Partly Cloudy 81 27 72 22 74 74 NNE 13 20 30 1016 10 16.09344 0 0
9:35 am 09:35 Partly Cloudy 82 28 70 21 66 66 N 14 22 30 1016 10 16.09344 0 0
9:55 am 09:55 Partly Cloudy 82 28 72 22 70 70 N 15 24 30 1016 10 16.09344 0 0
10:15 am 10:15 Partly Cloudy 82 28 72 22 70 70 N 10 17 30 1016 10 16.09344 0 0
10:35 am 10:35 Mostly Cloudy 82 28 72 22 70 70 N 13 20 30 1016 10 16.09344 0 0
10:55 am 10:55 Mostly Cloudy 82 28 72 22 70 70 N 9 15 30 1016 10 16.09344 0 0
11:15 am 11:15 Mostly Cloudy 82 28 72 22 70 70 N 7 11 30 1016 10 16.09344 0 0
11:35 am 11:35 Cloudy 82 28 72 22 70 70 NE 8 13 30 1016 10 16.09344 0 0
11:55 am 11:55 Cloudy 84 29 72 22 66 66 N 7 11 30 1016 10 16.09344 0 0
12:15 pm 12:15 Mostly Cloudy 86 30 72 22 62 62 NNW 3 6 30 1016 10 16.09344 0 0
12:35 pm 12:35 Partly Cloudy 88 31 72 22 59 59 NNE 6 9 29.97 1015 10 16.09344 0 0
12:55 pm 12:55 Mostly Cloudy 88 31 72 22 59 59 NE 8 13 29.97 1015 10 16.09344 0 0
1:15 pm 13:15 Mostly Cloudy 86 30 72 22 62 62 NNE 9 15 30 1016 10 16.09344 0 0
1:35 pm 13:35 Mostly Cloudy 88 31 72 22 59 59 NNE 5 7 29.94 1014 10 16.09344 0 0
1:55 pm 13:55 Mostly Cloudy 88 31 72 22 59 59 NNW 7 11 29.94 1014 10 16.09344 0 0
2:15 pm 14:15 Mostly Cloudy 88 31 72 22 59 59 N 3 6 29.94 1014 10 16.09344 0 0
2:35 pm 14:35 Partly Cloudy 88 31 73 23 62 62 N 5 7 29.94 1014 10 16.09344 0 0
2:55 pm 14:55 Sunny 88 31 72 22 59 59 NE 5 7 29.94 1014 10 16.09344 0 0
3:15 pm 15:15 Sunny 90 32 70 21 52 52 NNE 9 15 29.94 1014 10 16.09344 0 0
3:35 pm 15:35 Partly Cloudy 88 31 72 22 59 59 N 5 7 29.94 1014 N/A 0 0
3:55 pm 15:55 Partly Cloudy 90 32 72 22 55 55 NNE 9 15 29.91 1013 10 16.09344 0 0
4:15 pm 16:15 Partly Cloudy 90 32 72 22 55 55 NNE 9 15 29.91 1013 10 16.09344 0 0
4:35 pm 16:35 Sunny 90 32 70 21 52 52 NE 7 11 29.91 1013 10 16.09344 0 0
4:55 pm 16:55 Sunny 90 32 70 21 52 52 NE 7 11 29.91 1013 10 16.09344 0 0
5:15 pm 17:15 Sunny 90 32 68 20 49 49 NE 5 7 29.91 1013 10 16.09344 0 0
5:35 pm 17:35 Sunny 90 32 68 20 49 49 NE 6 9 29.91 1013 10 16.09344 0 0
5:55 pm 17:55 Sunny 90 32 68 20 49 49 Calm 29.91 1013 10 16.09344 0 0
6:15 pm 18:15 Sunny 90 32 70 21 52 52 NNE 3 6 29.88 1012 10 16.09344 0 0
6:35 pm 18:35 Partly Cloudy 90 32 70 21 52 52 NE 8 13 29.88 1012 10 16.09344 0 0
6:55 pm 18:55 Mostly Cloudy 90 32 68 20 49 49 E 5 7 29.91 1013 10 16.09344 0 0
7:15 pm 19:15 Partly Cloudy 88 31 68 20 52 52 E 3 6 29.91 1013 10 16.09344 0 0
7:35 pm 19:35 Sunny 86 30 70 21 59 59 E 5 7 29.91 1013 10 16.09344 0 0
7:55 pm 19:55 Partly Cloudy 86 30 72 22 62 62 ESE 5 7 29.94 1014 10 16.09344 0 0
8:15 pm 20:15 Partly Cloudy 86 30 72 22 62 62 SE 5 7 29.94 1014 10 16.09344 0 0
8:35 pm 20:35 Partly Cloudy 86 30 72 22 62 62 SSE 5 7 29.94 1014 10 16.09344 0 0
8:55 pm 20:55 Mostly Cloudy 86 30 72 22 62 62 SSE 12 19 29.94 1014 10 16.09344 0 0
9:15 pm 21:15 Mostly Cloudy 81 27 72 22 74 74 S 9 15 29.97 1015 10 16.09344 0 0
9:35 pm 21:35 Partly Cloudy 81 27 72 22 74 74 SSE 5 7 30 1016 10 16.09344 0 0
9:55 pm 21:55 Partly Cloudy 79 26 72 22 79 79 S 3 6 30 1016 10 16.09344 0 0
10:15 pm 22:15 Partly Cloudy 79 26 72 22 79 79 Calm 30 1016 10 16.09344 0 0
10:35 pm 22:35 Partly Cloudy 79 26 72 22 79 79 Calm 30 1016 10 16.09344 0 0
10:55 pm 22:55 Clear 77 25 72 22 83 83 Calm 30 1016 10 16.09344 0 0
11:15 pm 23:15 Clear 79 26 72 22 79 79 SE 3 6 30 1016 10 16.09344 0 0
11:35 pm 23:35 Mostly Cloudy 79 26 72 22 79 79 SSE 6 9 30 1016 10 16.09344 0 0
11:55 pm 23:55 Cloudy 79 26 70 21 74 74 SE 7 11 30 1016 10 16.09344 0 0

Powered by AerisWeather